Year,Month,Day,Hour,Minute,Value (Times are PST for temperature in C)
2008,06,28,00,00,13.00
2008,06,28,00,01,12.90
2008,06,28,00,02,12.90
2008,06,28,00,03,12.90
2008,06,28,00,04,12.90
2008,06,28,00,05,12.90
2008,06,28,00,06,12.90
2008,06,28,00,07,12.80
2008,06,28,00,08,12.80
2008,06,28,00,09,12.80
2008,06,28,00,10,12.80
2008,06,28,00,11,12.80
2008,06,28,00,12,12.80
2008,06,28,00,13,12.80
2008,06,28,00,14,12.80
2008,06,28,00,15,12.70
2008,06,28,00,16,12.70
2008,06,28,00,17,12.70
2008,06,28,00,18,12.70
2008,06,28,00,19,12.70
2008,06,28,00,20,12.70
2008,06,28,00,21,12.70
2008,06,28,00,22,12.70
2008,06,28,00,23,12.60
2008,06,28,00,24,12.60
2008,06,28,00,25,12.60
2008,06,28,00,26,12.60
2008,06,28,00,27,12.60
2008,06,28,00,28,12.60
2008,06,28,00,29,12.50
2008,06,28,00,30,12.50
2008,06,28,00,31,12.50
2008,06,28,00,32,12.50
2008,06,28,00,33,12.50
2008,06,28,00,34,12.50
2008,06,28,00,35,12.40
2008,06,28,00,36,12.40
2008,06,28,00,37,12.40
2008,06,28,00,38,12.40
2008,06,28,00,39,12.40
2008,06,28,00,40,12.40
2008,06,28,00,41,12.40
2008,06,28,00,42,12.40
2008,06,28,00,43,12.40
2008,06,28,00,44,12.40
2008,06,28,00,45,12.40
2008,06,28,00,46,12.30
2008,06,28,00,47,12.30
2008,06,28,00,48,12.30
2008,06,28,00,49,12.30
2008,06,28,00,50,12.30
2008,06,28,00,51,12.30
2008,06,28,00,52,12.30
2008,06,28,00,53,12.30
2008,06,28,00,54,12.30
2008,06,28,00,55,12.30
2008,06,28,00,56,12.30
2008,06,28,00,57,12.30
2008,06,28,00,58,12.20
2008,06,28,00,59,12.20
2008,06,28,01,00,12.20
2008,06,28,01,01,12.20
2008,06,28,01,02,12.20
2008,06,28,01,03,12.20
2008,06,28,01,04,12.20
2008,06,28,01,05,12.20
2008,06,28,01,06,12.20
2008,06,28,01,07,12.20
2008,06,28,01,08,12.20
2008,06,28,01,09,12.20
2008,06,28,01,10,12.10
2008,06,28,01,11,12.10
2008,06,28,01,12,12.10
2008,06,28,01,13,12.10
2008,06,28,01,14,12.10
2008,06,28,01,15,12.10
2008,06,28,01,16,12.10
2008,06,28,01,17,12.10
2008,06,28,01,18,12.10
2008,06,28,01,19,12.10
2008,06,28,01,20,12.10
2008,06,28,01,21,12.10
2008,06,28,01,22,12.10
2008,06,28,01,23,12.00
2008,06,28,01,24,12.00
2008,06,28,01,25,12.00
2008,06,28,01,26,12.00
2008,06,28,01,27,12.00
2008,06,28,01,28,12.00
2008,06,28,01,29,11.90
2008,06,28,01,30,11.90
2008,06,28,01,31,11.90
2008,06,28,01,32,11.90
2008,06,28,01,33,11.90
2008,06,28,01,34,11.90
2008,06,28,01,35,11.90
2008,06,28,01,36,11.90
2008,06,28,01,37,11.80
2008,06,28,01,38,11.80
2008,06,28,01,39,11.80
2008,06,28,01,40,11.80
2008,06,28,01,41,11.80
2008,06,28,01,42,11.80
2008,06,28,01,43,11.80
2008,06,28,01,44,11.80
2008,06,28,01,45,11.80
2008,06,28,01,46,11.80
2008,06,28,01,47,11.80
2008,06,28,01,48,11.80
2008,06,28,01,49,11.80
2008,06,28,01,50,11.80
2008,06,28,01,51,11.80
2008,06,28,01,52,11.80
2008,06,28,01,53,11.80
2008,06,28,01,54,11.70
2008,06,28,01,55,11.70
2008,06,28,01,56,11.70
2008,06,28,01,57,11.70
2008,06,28,01,58,11.70
2008,06,28,01,59,11.70
2008,06,28,02,00,11.70
2008,06,28,02,01,11.70
2008,06,28,02,02,11.70
2008,06,28,02,03,11.70
2008,06,28,02,04,11.70
2008,06,28,02,05,11.70
2008,06,28,02,06,11.70
2008,06,28,02,07,11.70
2008,06,28,02,08,11.70
2008,06,28,02,09,11.70
2008,06,28,02,10,11.70
2008,06,28,02,11,11.70
2008,06,28,02,12,11.70
2008,06,28,02,13,11.70
2008,06,28,02,14,11.60
2008,06,28,02,15,11.60
2008,06,28,02,16,11.60
2008,06,28,02,17,11.60
2008,06,28,02,18,11.60
2008,06,28,02,19,11.60
2008,06,28,02,20,11.60
2008,06,28,02,21,11.60
2008,06,28,02,22,11.60
2008,06,28,02,23,11.60
2008,06,28,02,24,11.60
2008,06,28,02,25,11.60
2008,06,28,02,26,11.50
2008,06,28,02,27,11.50
2008,06,28,02,28,11.50
2008,06,28,02,29,11.50
2008,06,28,02,30,11.50
2008,06,28,02,31,11.50
2008,06,28,02,32,11.50
2008,06,28,02,33,11.50
2008,06,28,02,34,11.50
2008,06,28,02,35,11.50
2008,06,28,02,36,11.40
2008,06,28,02,37,11.40
2008,06,28,02,38,11.40
2008,06,28,02,39,11.40
2008,06,28,02,40,11.40
2008,06,28,02,41,11.40
2008,06,28,02,42,11.40
2008,06,28,02,43,11.40
2008,06,28,02,44,11.40
2008,06,28,02,45,11.40
2008,06,28,02,46,11.30
2008,06,28,02,47,11.30
2008,06,28,02,48,11.30
2008,06,28,02,49,11.30
2008,06,28,02,50,11.30
2008,06,28,02,51,11.30
2008,06,28,02,52,11.30
2008,06,28,02,53,11.30
2008,06,28,02,54,11.30
2008,06,28,02,55,11.30
2008,06,28,02,56,11.30
2008,06,28,02,57,11.30
2008,06,28,02,58,11.30
2008,06,28,02,59,11.30
2008,06,28,03,00,11.30
2008,06,28,03,01,11.30
2008,06,28,03,02,11.30
2008,06,28,03,03,11.30
2008,06,28,03,04,11.30
2008,06,28,03,05,11.20
2008,06,28,03,06,11.20
2008,06,28,03,07,11.20
2008,06,28,03,08,11.20
2008,06,28,03,09,11.20
2008,06,28,03,10,11.20
2008,06,28,03,11,11.20
2008,06,28,03,12,11.20
2008,06,28,03,13,11.20
2008,06,28,03,14,11.20
2008,06,28,03,15,11.20
2008,06,28,03,16,11.20
2008,06,28,03,17,11.20
2008,06,28,03,18,11.20
2008,06,28,03,19,11.20
2008,06,28,03,20,11.20
2008,06,28,03,21,11.20
2008,06,28,03,22,11.10
2008,06,28,03,23,11.10
2008,06,28,03,24,11.10
2008,06,28,03,25,11.10
2008,06,28,03,26,11.10
2008,06,28,03,27,11.10
2008,06,28,03,28,11.10
2008,06,28,03,29,11.10
2008,06,28,03,30,11.10
2008,06,28,03,31,11.10
2008,06,28,03,32,11.10
2008,06,28,03,33,11.10
2008,06,28,03,34,11.10
2008,06,28,03,35,11.10
2008,06,28,03,36,11.00
2008,06,28,03,37,11.00
2008,06,28,03,38,11.00
2008,06,28,03,39,11.00
2008,06,28,03,40,11.00
2008,06,28,03,41,11.00
2008,06,28,03,42,11.00
2008,06,28,03,43,11.00
2008,06,28,03,44,11.00
2008,06,28,03,45,10.90
2008,06,28,03,46,10.90
2008,06,28,03,47,10.90
2008,06,28,03,48,10.90
2008,06,28,03,49,10.90
2008,06,28,03,50,10.90
2008,06,28,03,51,10.90
2008,06,28,03,52,10.90
2008,06,28,03,53,10.90
2008,06,28,03,54,10.90
2008,06,28,03,55,10.90
2008,06,28,03,56,10.80
2008,06,28,03,57,10.80
2008,06,28,03,58,10.80
2008,06,28,03,59,10.80
2008,06,28,04,00,10.80
2008,06,28,04,01,10.80
2008,06,28,04,02,10.80
2008,06,28,04,03,10.80
2008,06,28,04,04,10.80
2008,06,28,04,05,10.80
2008,06,28,04,06,10.80
2008,06,28,04,07,10.80
2008,06,28,04,08,10.80
2008,06,28,04,09,10.80
2008,06,28,04,10,10.80
2008,06,28,04,11,10.80
2008,06,28,04,12,10.80
2008,06,28,04,13,10.80
2008,06,28,04,14,10.80
2008,06,28,04,15,10.80
2008,06,28,04,16,10.80
2008,06,28,04,17,10.80
2008,06,28,04,18,10.80
2008,06,28,04,19,10.80
2008,06,28,04,20,10.80
2008,06,28,04,21,10.80
2008,06,28,04,22,10.80
2008,06,28,04,23,10.80
2008,06,28,04,24,10.70
2008,06,28,04,25,10.70
2008,06,28,04,26,10.80
2008,06,28,04,27,10.80
2008,06,28,04,28,10.80
2008,06,28,04,29,10.80
2008,06,28,04,30,10.80
2008,06,28,04,31,10.80
2008,06,28,04,32,10.80
2008,06,28,04,33,10.80
2008,06,28,04,34,10.80
2008,06,28,04,35,10.80
2008,06,28,04,36,10.80
2008,06,28,04,37,10.80
2008,06,28,04,38,10.80
2008,06,28,04,39,10.80
2008,06,28,04,40,10.80
2008,06,28,04,41,10.80
2008,06,28,04,42,10.80
2008,06,28,04,43,10.80
2008,06,28,04,44,10.80
2008,06,28,04,45,10.80
2008,06,28,04,46,10.80
2008,06,28,04,47,10.80
2008,06,28,04,48,10.80
2008,06,28,04,49,10.80
2008,06,28,04,50,10.80
2008,06,28,04,51,10.80
2008,06,28,04,52,10.80
2008,06,28,04,53,10.80
2008,06,28,04,54,10.80
2008,06,28,04,55,10.80
2008,06,28,04,56,10.80
2008,06,28,04,57,10.80
2008,06,28,04,58,10.80
2008,06,28,04,59,10.80
2008,06,28,05,00,10.80
2008,06,28,05,01,10.80
2008,06,28,05,02,10.80
2008,06,28,05,03,10.80
2008,06,28,05,04,10.80
2008,06,28,05,05,10.80
2008,06,28,05,06,10.80
2008,06,28,05,07,10.80
2008,06,28,05,08,10.80
2008,06,28,05,09,10.80
2008,06,28,05,10,10.80
2008,06,28,05,11,10.80
2008,06,28,05,12,10.80
2008,06,28,05,13,10.80
2008,06,28,05,14,10.70
2008,06,28,05,15,10.70
2008,06,28,05,16,10.70
2008,06,28,05,17,10.70
2008,06,28,05,18,10.70
2008,06,28,05,19,10.70
2008,06,28,05,20,10.70
2008,06,28,05,21,10.70
2008,06,28,05,22,10.70
2008,06,28,05,23,10.70
2008,06,28,05,24,10.70
2008,06,28,05,25,10.70
2008,06,28,05,26,10.70
2008,06,28,05,27,10.80
2008,06,28,05,28,10.80
2008,06,28,05,29,10.70
2008,06,28,05,30,10.70
2008,06,28,05,31,10.70
2008,06,28,05,32,10.70
2008,06,28,05,33,10.70
2008,06,28,05,34,10.70
2008,06,28,05,35,10.70
2008,06,28,05,36,10.80
2008,06,28,05,37,10.80
2008,06,28,05,38,10.80
2008,06,28,05,39,10.80
2008,06,28,05,40,10.80
2008,06,28,05,41,10.80
2008,06,28,05,42,10.80
2008,06,28,05,43,10.80
2008,06,28,05,44,10.80
2008,06,28,05,45,10.80
2008,06,28,05,46,10.80
2008,06,28,05,47,10.80
2008,06,28,05,48,10.80
2008,06,28,05,49,10.80
2008,06,28,05,50,10.80
2008,06,28,05,51,10.90
2008,06,28,05,52,10.90
2008,06,28,05,53,10.90
2008,06,28,05,54,10.90
2008,06,28,05,55,11.00
2008,06,28,05,56,11.00
2008,06,28,05,57,11.00
2008,06,28,05,58,11.10
2008,06,28,05,59,11.20
2008,06,28,06,00,11.20
2008,06,28,06,01,11.30
2008,06,28,06,02,11.30
2008,06,28,06,03,11.30
2008,06,28,06,04,11.40
2008,06,28,06,05,11.40
2008,06,28,06,06,11.40
2008,06,28,06,07,11.60
2008,06,28,06,08,11.90
2008,06,28,06,09,12.00
2008,06,28,06,10,12.30
2008,06,28,06,11,12.80
2008,06,28,06,12,13.10
2008,06,28,06,13,13.30
2008,06,28,06,14,13.60
2008,06,28,06,15,13.70
2008,06,28,06,16,13.90
2008,06,28,06,17,14.10
2008,06,28,06,18,14.20
2008,06,28,06,19,14.30
2008,06,28,06,20,14.30
2008,06,28,06,21,14.30
2008,06,28,06,22,14.30
2008,06,28,06,23,14.30
2008,06,28,06,24,14.40
2008,06,28,06,25,14.40
2008,06,28,06,26,14.40
2008,06,28,06,27,14.40
2008,06,28,06,28,14.50
2008,06,28,06,29,14.60
2008,06,28,06,30,14.80
2008,06,28,06,31,15.00
2008,06,28,06,32,15.00
2008,06,28,06,33,15.30
2008,06,28,06,34,15.50
2008,06,28,06,35,15.60
2008,06,28,06,36,15.70
2008,06,28,06,37,15.70
2008,06,28,06,38,15.70
2008,06,28,06,39,15.70
2008,06,28,06,40,15.70
2008,06,28,06,41,15.70
2008,06,28,06,42,15.90
2008,06,28,06,43,16.10
2008,06,28,06,44,16.20
2008,06,28,06,45,16.30
2008,06,28,06,46,16.50
2008,06,28,06,47,16.70
2008,06,28,06,48,16.80
2008,06,28,06,49,16.90
2008,06,28,06,50,17.00
2008,06,28,06,51,17.10
2008,06,28,06,52,17.30
2008,06,28,06,53,17.40
2008,06,28,06,54,17.50
2008,06,28,06,55,17.60
2008,06,28,06,56,17.70
2008,06,28,06,57,17.80
2008,06,28,06,58,17.80
2008,06,28,06,59,17.80
2008,06,28,07,00,17.90
2008,06,28,07,01,17.90
2008,06,28,07,02,18.00
2008,06,28,07,03,18.10
2008,06,28,07,04,18.10
2008,06,28,07,05,18.10
2008,06,28,07,06,18.10
2008,06,28,07,07,18.10
2008,06,28,07,08,18.10
2008,06,28,07,09,18.10
2008,06,28,07,10,18.20
2008,06,28,07,11,18.20
2008,06,28,07,12,18.20
2008,06,28,07,13,18.20
2008,06,28,07,14,18.20
2008,06,28,07,15,18.30
2008,06,28,07,16,18.40
2008,06,28,07,17,18.50
2008,06,28,07,18,18.50
2008,06,28,07,19,18.60
2008,06,28,07,20,18.60
2008,06,28,07,21,18.60
2008,06,28,07,22,18.70
2008,06,28,07,23,18.70
2008,06,28,07,24,18.70
2008,06,28,07,25,18.80
2008,06,28,07,26,18.80
2008,06,28,07,27,18.90
2008,06,28,07,28,19.00
2008,06,28,07,29,19.00
2008,06,28,07,30,19.10
2008,06,28,07,31,19.10
2008,06,28,07,32,19.10
2008,06,28,07,33,19.20
2008,06,28,07,34,19.20
2008,06,28,07,35,19.30
2008,06,28,07,36,19.30
2008,06,28,07,37,19.30
2008,06,28,07,38,19.40
2008,06,28,07,39,19.50
2008,06,28,07,40,19.50
2008,06,28,07,41,19.60
2008,06,28,07,42,19.70
2008,06,28,07,43,19.70
2008,06,28,07,44,19.80
2008,06,28,07,45,19.90
2008,06,28,07,46,19.90
2008,06,28,07,47,20.00
2008,06,28,07,48,20.00
2008,06,28,07,49,20.10
2008,06,28,07,50,20.10
2008,06,28,07,51,20.10
2008,06,28,07,52,20.20
2008,06,28,07,53,20.20
2008,06,28,07,54,20.20
2008,06,28,07,55,20.30
2008,06,28,07,56,20.30
2008,06,28,07,57,20.40
2008,06,28,07,58,20.40
2008,06,28,07,59,20.50
2008,06,28,08,00,20.60
2008,06,28,08,01,20.60
2008,06,28,08,02,20.60
2008,06,28,08,03,20.70
2008,06,28,08,04,20.70
2008,06,28,08,05,20.70
2008,06,28,08,06,20.80
2008,06,28,08,07,20.80
2008,06,28,08,08,20.80
2008,06,28,08,09,20.90
2008,06,28,08,10,21.00
2008,06,28,08,11,21.00
2008,06,28,08,12,21.10
2008,06,28,08,13,21.10
2008,06,28,08,14,21.10
2008,06,28,08,15,21.20
2008,06,28,08,16,21.20
2008,06,28,08,17,21.20
2008,06,28,08,18,21.20
2008,06,28,08,19,21.30
2008,06,28,08,20,21.30
2008,06,28,08,21,21.30
2008,06,28,08,22,21.30
2008,06,28,08,23,21.30
2008,06,28,08,24,21.30
2008,06,28,08,25,21.30
2008,06,28,08,26,21.30
2008,06,28,08,27,21.30
2008,06,28,08,28,21.30
2008,06,28,08,29,21.30
2008,06,28,08,30,21.30
2008,06,28,08,31,21.30
2008,06,28,08,32,21.30
2008,06,28,08,33,21.40
2008,06,28,08,34,21.40
2008,06,28,08,35,21.50
2008,06,28,08,36,21.50
2008,06,28,08,37,21.60
2008,06,28,08,38,21.70
2008,06,28,08,39,21.70
2008,06,28,08,40,21.80
2008,06,28,08,41,21.80
2008,06,28,08,42,21.90
2008,06,28,08,43,21.90
2008,06,28,08,44,22.00
2008,06,28,08,45,22.00
2008,06,28,08,46,22.10
2008,06,28,08,47,22.10
2008,06,28,08,48,22.10
2008,06,28,08,49,22.10
2008,06,28,08,50,22.20
2008,06,28,08,51,22.20
2008,06,28,08,52,22.10
2008,06,28,08,53,22.10
2008,06,28,08,54,22.20
2008,06,28,08,55,22.20
2008,06,28,08,56,22.30
2008,06,28,08,57,22.30
2008,06,28,08,58,22.30
2008,06,28,08,59,22.40
2008,06,28,09,00,22.40
2008,06,28,09,01,22.40
2008,06,28,09,02,22.40
2008,06,28,09,03,22.40
2008,06,28,09,04,22.40
2008,06,28,09,05,22.40
2008,06,28,09,06,22.40
2008,06,28,09,07,22.40
2008,06,28,09,08,22.50
2008,06,28,09,09,22.50
2008,06,28,09,10,22.60
2008,06,28,09,11,22.60
2008,06,28,09,12,22.60
2008,06,28,09,13,22.70
2008,06,28,09,14,22.80
2008,06,28,09,15,22.90
2008,06,28,09,16,22.90
2008,06,28,09,17,22.90
2008,06,28,09,18,22.90
2008,06,28,09,19,22.90
2008,06,28,09,20,22.90
2008,06,28,09,21,23.00
2008,06,28,09,22,22.90
2008,06,28,09,23,22.90
2008,06,28,09,24,22.90
2008,06,28,09,25,22.90
2008,06,28,09,26,22.90
2008,06,28,09,27,22.90
2008,06,28,09,28,22.90
2008,06,28,09,29,22.90
2008,06,28,09,30,22.90
2008,06,28,09,31,22.90
2008,06,28,09,32,22.90
2008,06,28,09,33,22.90
2008,06,28,09,34,22.90
2008,06,28,09,35,22.80
2008,06,28,09,36,22.80
2008,06,28,09,37,22.90
2008,06,28,09,38,22.90
2008,06,28,09,39,22.90
2008,06,28,09,40,23.00
2008,06,28,09,41,23.00
2008,06,28,09,42,23.00
2008,06,28,09,43,23.10
2008,06,28,09,44,23.20
2008,06,28,09,45,23.20
2008,06,28,09,46,23.20
2008,06,28,09,47,23.30
2008,06,28,09,48,23.30
2008,06,28,09,49,23.30
2008,06,28,09,50,23.30
2008,06,28,09,51,23.30
2008,06,28,09,52,23.20
2008,06,28,09,53,23.20
2008,06,28,09,54,23.20
2008,06,28,09,55,23.20
2008,06,28,09,56,23.20
2008,06,28,09,57,23.20
2008,06,28,09,58,23.20
2008,06,28,09,59,23.10
2008,06,28,10,00,23.10
2008,06,28,10,01,23.10
2008,06,28,10,02,23.20
2008,06,28,10,03,23.20
2008,06,28,10,04,23.30
2008,06,28,10,05,23.30
2008,06,28,10,06,23.30
2008,06,28,10,07,23.30
2008,06,28,10,08,23.30
2008,06,28,10,09,23.40
2008,06,28,10,10,23.40
2008,06,28,10,11,23.40
2008,06,28,10,12,23.40
2008,06,28,10,13,23.50
2008,06,28,10,14,23.60
2008,06,28,10,15,23.60
2008,06,28,10,16,23.60
2008,06,28,10,17,23.60
2008,06,28,10,18,23.60
2008,06,28,10,19,23.60
2008,06,28,10,20,23.60
2008,06,28,10,21,23.60
2008,06,28,10,22,23.60
2008,06,28,10,23,23.60
2008,06,28,10,24,23.70
2008,06,28,10,25,23.70
2008,06,28,10,26,23.70
2008,06,28,10,27,23.80
2008,06,28,10,28,23.80
2008,06,28,10,29,23.80
2008,06,28,10,30,23.90
2008,06,28,10,31,23.90
2008,06,28,10,32,23.90
2008,06,28,10,33,23.90
2008,06,28,10,34,24.00
2008,06,28,10,35,24.00
2008,06,28,10,36,24.00
2008,06,28,10,37,24.00
2008,06,28,10,38,23.90
2008,06,28,10,39,23.90
2008,06,28,10,40,23.80
2008,06,28,10,41,23.80
2008,06,28,10,42,23.70
2008,06,28,10,43,23.70
2008,06,28,10,44,23.70
2008,06,28,10,45,23.70
2008,06,28,10,46,23.70
2008,06,28,10,47,23.70
2008,06,28,10,48,23.70
2008,06,28,10,49,23.80
2008,06,28,10,50,23.80
2008,06,28,10,51,23.80
2008,06,28,10,52,23.80
2008,06,28,10,53,23.80
2008,06,28,10,54,23.90
2008,06,28,10,55,23.90
2008,06,28,10,56,23.90
2008,06,28,10,57,23.90
2008,06,28,10,58,23.90
2008,06,28,10,59,24.00
2008,06,28,11,00,24.00
2008,06,28,11,01,24.10
2008,06,28,11,02,24.10
2008,06,28,11,03,24.10
2008,06,28,11,04,24.10
2008,06,28,11,05,24.20
2008,06,28,11,06,24.20
2008,06,28,11,07,24.20
2008,06,28,11,08,24.20
2008,06,28,11,09,24.20
2008,06,28,11,10,24.20
2008,06,28,11,11,24.20
2008,06,28,11,12,24.20
2008,06,28,11,13,24.30
2008,06,28,11,14,24.40
2008,06,28,11,15,24.40
2008,06,28,11,16,24.40
2008,06,28,11,17,24.50
2008,06,28,11,18,24.50
2008,06,28,11,19,24.50
2008,06,28,11,20,24.60
2008,06,28,11,21,24.60
2008,06,28,11,22,24.60
2008,06,28,11,23,24.60
2008,06,28,11,24,24.70
2008,06,28,11,25,24.80
2008,06,28,11,26,24.80
2008,06,28,11,27,24.90
2008,06,28,11,28,24.90
2008,06,28,11,29,24.90
2008,06,28,11,30,24.80
2008,06,28,11,31,24.80
2008,06,28,11,32,24.80
2008,06,28,11,33,24.80
2008,06,28,11,34,24.90
2008,06,28,11,35,24.90
2008,06,28,11,36,24.80
2008,06,28,11,37,24.80
2008,06,28,11,38,24.80
2008,06,28,11,39,24.90
2008,06,28,11,40,24.90
2008,06,28,11,41,24.90
2008,06,28,11,42,24.90
2008,06,28,11,43,24.90
2008,06,28,11,44,24.90
2008,06,28,11,45,24.80
2008,06,28,11,46,24.70
2008,06,28,11,47,24.70
2008,06,28,11,48,24.60
2008,06,28,11,49,24.60
2008,06,28,11,50,24.60
2008,06,28,11,51,24.60
2008,06,28,11,52,24.70
2008,06,28,11,53,24.70
2008,06,28,11,54,24.80
2008,06,28,11,55,24.80
2008,06,28,11,56,24.90
2008,06,28,11,57,24.80
2008,06,28,11,58,24.80
2008,06,28,11,59,24.80
2008,06,28,12,00,24.70
2008,06,28,12,01,24.70
2008,06,28,12,02,24.70
2008,06,28,12,03,24.70
2008,06,28,12,04,24.70
2008,06,28,12,05,24.70
2008,06,28,12,06,24.80
2008,06,28,12,07,24.80
2008,06,28,12,08,24.80
2008,06,28,12,09,24.80
2008,06,28,12,10,24.80
2008,06,28,12,11,24.80
2008,06,28,12,12,24.90
2008,06,28,12,13,25.00
2008,06,28,12,14,25.10
2008,06,28,12,15,25.10
2008,06,28,12,16,25.10
2008,06,28,12,17,25.20
2008,06,28,12,18,25.20
2008,06,28,12,19,25.20
2008,06,28,12,20,25.20
2008,06,28,12,21,25.20
2008,06,28,12,22,25.20
2008,06,28,12,23,25.20
2008,06,28,12,24,25.20
2008,06,28,12,25,25.20
2008,06,28,12,26,25.30
2008,06,28,12,27,25.30
2008,06,28,12,28,25.40
2008,06,28,12,29,25.40
2008,06,28,12,30,25.60
2008,06,28,12,31,25.60
2008,06,28,12,32,25.60
2008,06,28,12,33,25.60
2008,06,28,12,34,25.60
2008,06,28,12,35,25.70
2008,06,28,12,36,25.70
2008,06,28,12,37,25.70
2008,06,28,12,38,25.70
2008,06,28,12,39,25.60
2008,06,28,12,40,25.60
2008,06,28,12,41,25.70
2008,06,28,12,42,25.60
2008,06,28,12,43,25.70
2008,06,28,12,44,25.70
2008,06,28,12,45,25.70
2008,06,28,12,46,25.80
2008,06,28,12,47,25.80
2008,06,28,12,48,25.80
2008,06,28,12,49,25.90
2008,06,28,12,50,25.90
2008,06,28,12,51,25.90
2008,06,28,12,52,26.00
2008,06,28,12,53,26.10
2008,06,28,12,54,26.10
2008,06,28,12,55,26.10
2008,06,28,12,56,26.00
2008,06,28,12,57,25.90
2008,06,28,12,58,25.90
2008,06,28,12,59,25.90
2008,06,28,13,00,25.90
2008,06,28,13,01,26.00
2008,06,28,13,02,26.10
2008,06,28,13,03,26.20
2008,06,28,13,04,26.20
2008,06,28,13,05,26.30
2008,06,28,13,06,26.30
2008,06,28,13,07,26.30
2008,06,28,13,08,26.30
2008,06,28,13,09,26.30
2008,06,28,13,10,26.30
2008,06,28,13,11,26.40
2008,06,28,13,12,26.50
2008,06,28,13,13,26.60
2008,06,28,13,14,26.60
2008,06,28,13,15,26.60
2008,06,28,13,16,26.50
2008,06,28,13,17,26.50
2008,06,28,13,18,26.40
2008,06,28,13,19,26.40
2008,06,28,13,20,26.40
2008,06,28,13,21,26.40
2008,06,28,13,22,26.40
2008,06,28,13,23,26.50
2008,06,28,13,24,26.50
2008,06,28,13,25,26.50
2008,06,28,13,26,26.40
2008,06,28,13,27,26.40
2008,06,28,13,28,26.40
2008,06,28,13,29,26.40
2008,06,28,13,30,26.50
2008,06,28,13,31,26.50
2008,06,28,13,32,26.60
2008,06,28,13,33,26.70
2008,06,28,13,34,26.70
2008,06,28,13,35,26.70
2008,06,28,13,36,26.80
2008,06,28,13,37,26.80
2008,06,28,13,38,26.80
2008,06,28,13,39,26.90
2008,06,28,13,40,26.90
2008,06,28,13,41,26.90
2008,06,28,13,42,26.80
2008,06,28,13,43,26.80
2008,06,28,13,44,26.80
2008,06,28,13,45,26.80
2008,06,28,13,46,26.80
2008,06,28,13,47,26.90
2008,06,28,13,48,26.90
2008,06,28,13,49,26.90
2008,06,28,13,50,26.90
2008,06,28,13,51,26.80
2008,06,28,13,52,26.80
2008,06,28,13,53,26.90
2008,06,28,13,54,26.90
2008,06,28,13,55,27.00
2008,06,28,13,56,27.00
2008,06,28,13,57,27.10
2008,06,28,13,58,27.10
2008,06,28,13,59,27.20
2008,06,28,14,00,27.20
2008,06,28,14,01,27.20
2008,06,28,14,02,27.20
2008,06,28,14,03,27.30
2008,06,28,14,04,27.30
2008,06,28,14,05,27.30
2008,06,28,14,06,27.30
2008,06,28,14,07,27.30
2008,06,28,14,08,27.30
2008,06,28,14,09,27.40
2008,06,28,14,10,27.40
2008,06,28,14,11,27.40
2008,06,28,14,12,27.50
2008,06,28,14,13,27.60
2008,06,28,14,14,27.60
2008,06,28,14,15,27.70
2008,06,28,14,16,27.70
2008,06,28,14,17,27.70
2008,06,28,14,18,27.80
2008,06,28,14,19,27.80
2008,06,28,14,20,27.80
2008,06,28,14,21,27.70
2008,06,28,14,22,27.70
2008,06,28,14,23,27.60
2008,06,28,14,24,27.60
2008,06,28,14,25,27.60
2008,06,28,14,26,27.60
2008,06,28,14,27,27.60
2008,06,28,14,28,27.70
2008,06,28,14,29,27.70
2008,06,28,14,30,27.70
2008,06,28,14,31,27.70
2008,06,28,14,32,27.70
2008,06,28,14,33,27.70
2008,06,28,14,34,27.70
2008,06,28,14,35,27.70
2008,06,28,14,36,27.80
2008,06,28,14,37,27.90
2008,06,28,14,38,28.00
2008,06,28,14,39,28.00
2008,06,28,14,40,28.00
2008,06,28,14,41,28.10
2008,06,28,14,42,28.10
2008,06,28,14,43,28.20
2008,06,28,14,44,28.30
2008,06,28,14,45,28.30
2008,06,28,14,46,28.30
2008,06,28,14,47,28.20
2008,06,28,14,48,28.10
2008,06,28,14,49,28.00
2008,06,28,14,50,28.00
2008,06,28,14,51,28.00
2008,06,28,14,52,28.10
2008,06,28,14,53,28.10
2008,06,28,14,54,28.10
2008,06,28,14,55,28.10
2008,06,28,14,56,28.20
2008,06,28,14,57,28.10
2008,06,28,14,58,28.10
2008,06,28,14,59,28.10
2008,06,28,15,00,28.10
2008,06,28,15,01,28.10
2008,06,28,15,02,28.10
2008,06,28,15,03,28.20
2008,06,28,15,04,28.30
2008,06,28,15,05,28.30
2008,06,28,15,06,28.30
2008,06,28,15,07,28.30
2008,06,28,15,08,28.30
2008,06,28,15,09,28.40
2008,06,28,15,10,28.40
2008,06,28,15,11,28.50
2008,06,28,15,12,28.60
2008,06,28,15,13,28.60
2008,06,28,15,14,28.60
2008,06,28,15,15,28.60
2008,06,28,15,16,28.60
2008,06,28,15,17,28.50
2008,06,28,15,18,28.50
2008,06,28,15,19,28.50
2008,06,28,15,20,28.50
2008,06,28,15,21,28.60
2008,06,28,15,22,28.60
2008,06,28,15,23,28.50
2008,06,28,15,24,28.40
2008,06,28,15,25,28.40
2008,06,28,15,26,28.40
2008,06,28,15,27,28.40
2008,06,28,15,28,28.50
2008,06,28,15,29,28.50
2008,06,28,15,30,28.60
2008,06,28,15,31,28.70
2008,06,28,15,32,28.70
2008,06,28,15,33,28.70
2008,06,28,15,34,28.70
2008,06,28,15,35,28.70
2008,06,28,15,36,28.70
2008,06,28,15,37,28.80
2008,06,28,15,38,28.90
2008,06,28,15,39,28.90
2008,06,28,15,40,28.90
2008,06,28,15,41,28.90
2008,06,28,15,42,28.90
2008,06,28,15,43,28.90
2008,06,28,15,44,28.90
2008,06,28,15,45,29.00
2008,06,28,15,46,29.10
2008,06,28,15,47,29.20
2008,06,28,15,48,29.20
2008,06,28,15,49,29.10
2008,06,28,15,50,29.10
2008,06,28,15,51,29.20
2008,06,28,15,52,29.20
2008,06,28,15,53,29.20
2008,06,28,15,54,29.20
2008,06,28,15,55,29.20
2008,06,28,15,56,29.10
2008,06,28,15,57,29.10
2008,06,28,15,58,29.10
2008,06,28,15,59,29.10
2008,06,28,16,00,29.00
2008,06,28,16,01,28.90
2008,06,28,16,02,28.80
2008,06,28,16,03,28.80
2008,06,28,16,04,28.80
2008,06,28,16,05,28.70
2008,06,28,16,06,28.70
2008,06,28,16,07,28.60
2008,06,28,16,08,28.60
2008,06,28,16,09,28.60
2008,06,28,16,10,28.60
2008,06,28,16,11,28.60
2008,06,28,16,12,28.60
2008,06,28,16,13,28.60
2008,06,28,16,14,28.60
2008,06,28,16,15,28.60
2008,06,28,16,16,28.50
2008,06,28,16,17,28.50
2008,06,28,16,18,28.60
2008,06,28,16,19,28.60
2008,06,28,16,20,28.60
2008,06,28,16,21,28.70
2008,06,28,16,22,28.70
2008,06,28,16,23,28.80
2008,06,28,16,24,28.80
2008,06,28,16,25,28.80
2008,06,28,16,26,28.90
2008,06,28,16,27,28.90
2008,06,28,16,28,28.90
2008,06,28,16,29,28.90
2008,06,28,16,30,28.90
2008,06,28,16,31,28.90
2008,06,28,16,32,28.90
2008,06,28,16,33,28.90
2008,06,28,16,34,28.80
2008,06,28,16,35,28.80
2008,06,28,16,36,28.70
2008,06,28,16,37,28.70
2008,06,28,16,38,28.70
2008,06,28,16,39,28.70
2008,06,28,16,40,28.70
2008,06,28,16,41,28.60
2008,06,28,16,42,28.60
2008,06,28,16,43,28.60
2008,06,28,16,44,28.60
2008,06,28,16,45,28.60
2008,06,28,16,46,28.70
2008,06,28,16,47,28.70
2008,06,28,16,48,28.80
2008,06,28,16,49,28.80
2008,06,28,16,50,28.90
2008,06,28,16,51,28.90
2008,06,28,16,52,28.90
2008,06,28,16,53,29.00
2008,06,28,16,54,29.00
2008,06,28,16,55,29.00
2008,06,28,16,56,29.00
2008,06,28,16,57,29.00
2008,06,28,16,58,29.00
2008,06,28,16,59,29.00
2008,06,28,17,00,29.00
2008,06,28,17,01,28.90
2008,06,28,17,02,28.90
2008,06,28,17,03,28.90
2008,06,28,17,04,28.80
2008,06,28,17,05,28.80
2008,06,28,17,06,28.80
2008,06,28,17,07,28.80
2008,06,28,17,08,28.80
2008,06,28,17,09,28.80
2008,06,28,17,10,28.80
2008,06,28,17,11,28.80
2008,06,28,17,12,28.70
2008,06,28,17,13,28.70
2008,06,28,17,14,28.80
2008,06,28,17,15,28.80
2008,06,28,17,16,28.80
2008,06,28,17,17,28.80
2008,06,28,17,18,28.90
2008,06,28,17,19,28.90